2023/02/25 00:00:00,78.4, 1.8
2023/02/25 00:10:00,78.5, 2.0
2023/02/25 00:20:00,78.5, 1.9
2023/02/25 00:30:00,78.5, 2.1
2023/02/25 00:40:00,78.6, 2.0
2023/02/25 00:50:00,78.5, 1.7
2023/02/25 01:00:00,78.5, 1.8
2023/02/25 01:10:00,78.5, 1.7
2023/02/25 01:20:00,78.5, 1.7
2023/02/25 01:30:00,78.5, 1.4
2023/02/25 01:40:00,78.5, 1.6
2023/02/25 01:50:00,78.7, 1.1
2023/02/25 02:00:00,78.9, 1.4
2023/02/25 02:10:00,78.9, 1.4
2023/02/25 02:20:00,78.9, 1.3
2023/02/25 02:30:00,78.9, 1.1
2023/02/25 02:40:00,78.8, 1.5
2023/02/25 02:50:00,78.8, 1.6
2023/02/25 03:00:00,78.8, 1.3
2023/02/25 03:10:00,78.7, 1.3
2023/02/25 03:20:00,78.7, 1.2
2023/02/25 03:30:00,78.7, 0.9
2023/02/25 03:40:00,78.7, 0.6
2023/02/25 03:50:00,78.7, 0.5
2023/02/25 04:00:00,78.8, 0.8
2023/02/25 04:10:00,78.7, 0.7
2023/02/25 04:20:00,78.7, 0.3
2023/02/25 04:30:00,78.7,-0.1
2023/02/25 04:40:00,78.7, 0.0
2023/02/25 04:50:00,78.7, 0.2
2023/02/25 05:00:00,78.7, 0.0
2023/02/25 05:10:00,78.6, 0.2
2023/02/25 05:20:00,78.6, 0.4
2023/02/25 05:30:00,78.7, 0.3
2023/02/25 05:40:00,78.6, 0.6
2023/02/25 05:50:00,78.6, 0.3
2023/02/25 06:00:00,78.6, 0.1
2023/02/25 06:10:00,78.6, 0.2
2023/02/25 06:20:00,78.6, 0.3
2023/02/25 06:30:00,78.6,-0.1
2023/02/25 06:40:00,78.6,-0.3
2023/02/25 06:50:00,78.6,-0.2
2023/02/25 07:00:00,78.6, 0.3
2023/02/25 07:10:00,78.5, 0.3
2023/02/25 07:20:00,78.7, 0.6
2023/02/25 07:30:00,78.7, 0.8
2023/02/25 07:40:00,78.7, 0.7
2023/02/25 07:50:00,78.7, 0.9
2023/02/25 08:00:00,78.7, 1.8
2023/02/25 08:10:00,78.7, 1.3
2023/02/25 08:20:00,78.9, 0.9
2023/02/25 08:30:00,79.0, 1.4
2023/02/25 08:40:00,79.1, 1.9
2023/02/25 08:50:00,79.1, 2.8
2023/02/25 09:00:00,79.0, 3.4
2023/02/25 09:10:00,78.9, 3.4
2023/02/25 09:20:00,78.9, 3.9
2023/02/25 09:30:00,78.9, 3.4
2023/02/25 09:40:00,78.9, 4.0
2023/02/25 09:50:00,78.9, 3.6
2023/02/25 10:00:00,79.0, 3.4
2023/02/25 10:10:00,78.9, 4.0
2023/02/25 10:20:00,78.9, 3.7
2023/02/25 10:30:00,78.8, 3.4
2023/02/25 10:40:00,78.6, 4.6
2023/02/25 10:50:00,78.5, 5.8
2023/02/25 11:00:00,78.6, 5.2
2023/02/25 11:10:00,78.6, 3.9
2023/02/25 11:20:00,78.6, 4.5
2023/02/25 11:30:00,78.6, 4.9
2023/02/25 11:40:00,78.4, 4.5
2023/02/25 11:50:00,78.4, 4.3
2023/02/25 12:00:00,78.1, 6.7
2023/02/25 12:10:00,78.0, 7.9
2023/02/25 12:20:00,78.0, 6.4
2023/02/25 12:30:00,78.0, 8.2
2023/02/25 12:40:00,77.8, 7.7
2023/02/25 12:50:00,77.9, 4.2
2023/02/25 13:00:00,77.8, 5.7
2023/02/25 13:10:00,77.8, 7.3
2023/02/25 13:20:00,77.7, 4.9
2023/02/25 13:30:00,78.3, 2.5
2023/02/25 13:40:00,78.3,10.5
2023/02/25 13:50:00,78.2, 7.7
2023/02/25 14:00:00,78.1, 4.4
2023/02/25 14:10:00,77.8, 5.2
2023/02/25 14:20:00,77.6, 9.9
2023/02/25 14:30:00,77.4,13.3
2023/02/25 14:40:00,77.5, 4.9
2023/02/25 14:50:00,77.5, 8.2
2023/02/25 15:00:00,77.3,10.6
2023/02/25 15:10:00,77.4, 3.1
2023/02/25 15:20:00,78.2, 1.9
2023/02/25 15:30:00,78.5, 3.4
2023/02/25 15:40:00,78.5, 3.4
2023/02/25 15:50:00,78.5, 2.8
2023/02/25 16:00:00,78.6, 1.5
2023/02/25 16:10:00,78.9, 0.4
2023/02/25 16:20:00,79.2, 1.3
2023/02/25 16:30:00,79.4, 2.9
2023/02/25 16:40:00,79.4, 1.6
2023/02/25 16:50:00,79.4, 1.7
2023/02/25 17:00:00,79.5, 1.1
2023/02/25 17:10:00,79.6, 0.7
2023/02/25 17:20:00,79.6, 0.2
2023/02/25 17:30:00,79.5,-0.2
2023/02/25 17:40:00,79.5,-0.7
2023/02/25 17:50:00,79.6,-0.8
2023/02/25 18:00:00,79.5,-0.7
2023/02/25 18:10:00,79.5,-0.6
2023/02/25 18:20:00,79.5,-0.4
2023/02/25 18:30:00,79.5,-0.5
2023/02/25 18:40:00,79.5,-0.4
2023/02/25 18:50:00,79.5,-0.9
2023/02/25 19:00:00,79.5,-1.4
2023/02/25 19:10:00,79.5,-1.8
2023/02/25 19:20:00,79.4,-2.0
2023/02/25 19:30:00,79.3,-1.7
2023/02/25 19:40:00,79.4,-1.4
2023/02/25 19:50:00,79.3,-1.9
2023/02/25 20:00:00,79.4,-1.6
2023/02/25 20:10:00,79.4,-1.4
2023/02/25 20:20:00,79.4,-1.6
2023/02/25 20:30:00,79.4,-1.4
2023/02/25 20:40:00,79.4,-1.6
2023/02/25 20:50:00,79.4,-1.8
2023/02/25 21:00:00,79.4,-1.5
2023/02/25 21:10:00,79.3,-1.6
2023/02/25 21:20:00,79.3,-1.7
2023/02/25 21:30:00,79.3,-1.8
2023/02/25 21:40:00,79.3,-1.5
2023/02/25 21:50:00,79.3,-1.3
2023/02/25 22:00:00,79.7,-0.2
2023/02/25 22:10:00,79.9,-0.8
2023/02/25 22:20:00,79.9,-0.9
2023/02/25 22:30:00,79.9,-1.1
2023/02/25 22:40:00,79.9,-1.4
2023/02/25 22:50:00,79.9,-1.0
2023/02/25 23:00:00,79.9,-0.9
2023/02/25 23:10:00,79.8,-0.8
2023/02/25 23:20:00,79.8,-0.7
2023/02/25 23:30:00,79.8,-0.7
2023/02/25 23:40:00,79.9,-0.8
2023/02/25 23:50:00,80.2,-0.4
